When you browse on this site, cookies collect data to enhance your experience and personalize the content and advertising you see.
Visit our Privacy Policy to learn more. By continuing to use the site, you agree to this use of cookies and data.
  • In Switzerland
  • List of Countries
  • For 7 days
  • Water Temperature
  • Weather Map
  • Weather Widgets
  • user-avatar
    Login

    Hourly Weather Landau in der Pfalz

    Today, 29 May, Friday

    Time Temperature Precipitation Wind Pressure Humidity
    00:00 +12°C° 0 mm 2 mps 756 mmHg 63%
    01:00 +10°C° 0 mm 2 mps 756 mmHg 66%
    02:00 +10°C° 0 mm 2 mps 756 mmHg 71%
    03:00 +9°C° 0 mm 2 mps 756 mmHg 75%
    04:00 +9°C° 0 mm 2 mps 755 mmHg 80%
    05:00 +10°C° 0 mm 2 mps 755 mmHg 77%
    06:00 +11°C° 0 mm 3 mps 755 mmHg 74%
    07:00 +12°C° 0 mm 3 mps 755 mmHg 71%
    08:00 +14°C° 0 mm 3 mps 755 mmHg 65%
    09:00 +15°C° 0 mm 4 mps 755 mmHg 59%
    10:00 +18°C° 0 mm 4 mps 755 mmHg 53%
    11:00 +19°C° 0 mm 4 mps 754 mmHg 49%
    12:00 +20°C° 0 mm 5 mps 754 mmHg 46%
    13:00 +21°C° 0 mm 5 mps 753 mmHg 42%
    14:00 +21°C° 0 mm 5 mps 753 mmHg 42%
    15:00 +21°C° 0 mm 5 mps 752 mmHg 41%
    16:00 +21°C° 0 mm 5 mps 752 mmHg 41%
    17:00 +20°C° 0 mm 4 mps 752 mmHg 46%
    18:00 +19°C° 0 mm 4 mps 752 mmHg 51%
    19:00 +18°C° 0 mm 3 mps 751 mmHg 56%
    20:00 +17°C° 0 mm 3 mps 752 mmHg 56%
    21:00 +15°C° 0 mm 4 mps 752 mmHg 56%
    22:00 +13°C° 0 mm 4 mps 752 mmHg 55%
    23:00 +13°C° 0 mm 3 mps 752 mmHg 60%

    Tomorrow, 30 May, Saturday

    Time Temperature Precipitation Wind Pressure Humidity
    00:00 +12°C° 0 mm 3 mps 753 mmHg 64%
    01:00 +11°C° 0 mm 3 mps 753 mmHg 69%
    02:00 +10°C° 0 mm 3 mps 752 mmHg 71%
    03:00 +10°C° 0 mm 3 mps 752 mmHg 74%
    04:00 +9°C° 0 mm 2 mps 752 mmHg 76%
    05:00 +10°C° 0 mm 3 mps 752 mmHg 73%
    06:00 +11°C° 0 mm 3 mps 752 mmHg 70%
    07:00 +12°C° 0 mm 3 mps 752 mmHg 67%
    08:00 +14°C° 0 mm 4 mps 752 mmHg 61%
    09:00 +15°C° 0 mm 4 mps 752 mmHg 55%
    10:00 +18°C° 0 mm 4 mps 752 mmHg 49%
    11:00 +19°C° 0 mm 4 mps 752 mmHg 47%
    12:00 +20°C° 0 mm 5 mps 751 mmHg 44%
    13:00 +20°C° 0 mm 5 mps 751 mmHg 42%
    14:00 +20°C° 0 mm 5 mps 751 mmHg 43%
    15:00 +20°C° 0 mm 5 mps 751 mmHg 44%
    16:00 +20°C° 0 mm 5 mps 750 mmHg 45%
    17:00 +19°C° 0 mm 4 mps 750 mmHg 49%
    18:00 +18°C° 0 mm 4 mps 750 mmHg 52%
    19:00 +17°C° 0 mm 4 mps 750 mmHg 56%
    20:00 +14°C° 0 mm 4 mps 751 mmHg 57%
    21:00 +13°C° 0 mm 3 mps 751 mmHg 59%
    22:00 +12°C° 0 mm 3 mps 752 mmHg 61%
    23:00 +11°C° 0 mm 3 mps 751 mmHg 65%

    Day after tomorrow, 31 May, Sunday

    Time Temperature Precipitation Wind Pressure Humidity
    00:00 +10°C° 0 mm 3 mps 751 mmHg 68%
    01:00 +10°C° 0 mm 3 mps 751 mmHg 72%
    02:00 +9°C° 0 mm 2 mps 751 mmHg 76%
    03:00 +9°C° 0 mm 2 mps 751 mmHg 80%
    04:00 +8°C° 0 mm 2 mps 751 mmHg 84%
    05:00 +9°C° 0 mm 2 mps 751 mmHg 80%
    06:00 +12°C° 0 mm 2 mps 751 mmHg 76%
    07:00 +12°C° 0 mm 3 mps 751 mmHg 73%
    08:00 +13°C° 0 mm 3 mps 751 mmHg 67%
    09:00 +16°C° 0 mm 3 mps 751 mmHg 61%
    10:00 +17°C° 0 mm 3 mps 751 mmHg 55%
    11:00 +18°C° 0 mm 3 mps 750 mmHg 51%
    12:00 +19°C° 0 mm 3 mps 750 mmHg 47%
    13:00 +20°C° 0 mm 4 mps 750 mmHg 44%
    14:00 +20°C° 0 mm 4 mps 750 mmHg 43%
    15:00 +20°C° 0 mm 4 mps 750 mmHg 43%
    16:00 +21°C° 0 mm 4 mps 750 mmHg 43%
    17:00 +20°C° 0 mm 3 mps 750 mmHg 48%
    18:00 +19°C° 0 mm 3 mps 750 mmHg 54%
    19:00 +18°C° 0 mm 3 mps 750 mmHg 60%
    20:00 +16°C° 0 mm 3 mps 750 mmHg 63%
    21:00 +14°C° 0 mm 3 mps 750 mmHg 66%
    22:00 +14°C° 0 mm 2 mps 750 mmHg 69%
    23:00 +13°C° 0 mm 2 mps 750 mmHg 73%

    1 June, Monday

    Time Temperature Precipitation Wind Pressure Humidity
    00:00 +13°C° 0 mm 2 mps 750 mmHg 77%
    01:00 +12°C° 0 mm 2 mps 750 mmHg 80%
    02:00 +12°C° 0 mm 2 mps 750 mmHg 81%
    03:00 +12°C° 0 mm 2 mps 750 mmHg 81%
    04:00 +10°C° 0 mm 2 mps 750 mmHg 81%
    05:00 +12°C° 0 mm 2 mps 750 mmHg 78%
    06:00 +14°C° 0 mm 2 mps 750 mmHg 75%
    07:00 +14°C° 0 mm 3 mps 749 mmHg 72%
    08:00 +17°C° 0 mm 3 mps 749 mmHg 68%
    09:00 +18°C° 0 mm 3 mps 749 mmHg 63%
    10:00 +20°C° 0 mm 4 mps 749 mmHg 58%
    11:00 +21°C° 0 mm 4 mps 749 mmHg 55%
    12:00 +23°C° 0 mm 4 mps 748 mmHg 52%
    13:00 +25°C° 0 mm 5 mps 748 mmHg 49%
    14:00 +25°C° 0 mm 5 mps 748 mmHg 49%
    15:00 +25°C° 0 mm 5 mps 748 mmHg 49%
    16:00 +25°C° 0 mm 5 mps 747 mmHg 49%
    17:00 +23°C° 0 mm 4 mps 747 mmHg 55%
    18:00 +22°C° 0 mm 4 mps 747 mmHg 60%
    19:00 +21°C° 0 mm 3 mps 747 mmHg 66%
    20:00 +20°C° 0 mm 3 mps 747 mmHg 69%
    21:00 +19°C° 0 mm 3 mps 747 mmHg 72%
    22:00 +17°C° 0 mm 3 mps 747 mmHg 74%
    23:00 +16°C° 0 mm 3 mps 747 mmHg 77%

    2 June, Tuesday

    Time Temperature Precipitation Wind Pressure Humidity
    00:00 +16°C° 0 mm 2 mps 746 mmHg 80%
    01:00 +15°C° 0 mm 2 mps 746 mmHg 82%
    02:00 +14°C° 0 mm 2 mps 746 mmHg 84%
    03:00 +13°C° 0 mm 3 mps 746 mmHg 86%
    04:00 +12°C° 0 mm 3 mps 745 mmHg 88%
    05:00 +13°C° 0 mm 3 mps 745 mmHg 84%
    06:00 +14°C° 0 mm 4 mps 745 mmHg 79%
    07:00 +15°C° 0 mm 4 mps 745 mmHg 75%
    08:00 +18°C° 0 mm 4 mps 745 mmHg 69%
    09:00 +19°C° 0 mm 5 mps 744 mmHg 63%
    10:00 +21°C° 0 mm 5 mps 744 mmHg 57%
    11:00 +22°C° 0 mm 5 mps 744 mmHg 54%
    12:00 +23°C° 0 mm 5 mps 743 mmHg 50%
    13:00 +26°C° 0 mm 5 mps 743 mmHg 47%
    14:00 +26°C° 0 mm 5 mps 742 mmHg 47%
    15:00 +26°C° 0 mm 5 mps 742 mmHg 46%
    16:00 +27°C° 0 mm 5 mps 741 mmHg 46%
    17:00 +25°C° 0 mm 4 mps 741 mmHg 51%
    18:00 +23°C° 0 mm 4 mps 740 mmHg 55%
    19:00 +22°C° 0 mm 3 mps 740 mmHg 60%
    20:00 +21°C° 0 mm 3 mps 740 mmHg 63%
    21:00 +20°C° 0 mm 3 mps 740 mmHg 66%
    22:00 +18°C° 0 mm 2 mps 740 mmHg 68%
    23:00 +18°C° 0.1 mm 2 mps 740 mmHg 74%

    3 June, Wednesday

    Time Temperature Precipitation Wind Pressure Humidity
    00:00 +17°C° 0.1 mm 2 mps 740 mmHg 79%
    01:00 +16°C° 0.1 mm 2 mps 740 mmHg 84%
    02:00 +16°C° 0.1 mm 2 mps 740 mmHg 86%
    03:00 +15°C° 0.1 mm 1 mps 740 mmHg 88%
    04:00 +15°C° 0.1 mm 1 mps 740 mmHg 90%
    05:00 +16°C° 0 mm 1 mps 740 mmHg 88%
    06:00 +18°C° 0 mm 1 mps 740 mmHg 86%
    07:00 +18°C° 0 mm 1 mps 740 mmHg 84%
    08:00 +20°C° 0 mm 1 mps 740 mmHg 76%
    09:00 +20°C° 0 mm 2 mps 740 mmHg 68%
    10:00 +23°C° 0 mm 2 mps 740 mmHg 60%
    11:00 +24°C° 0.1 mm 2 mps 740 mmHg 56%
    12:00 +25°C° 0.1 mm 3 mps 740 mmHg 52%
    13:00 +26°C° 0.1 mm 3 mps 740 mmHg 48%
    14:00 +26°C° 0.1 mm 3 mps 740 mmHg 49%
    15:00 +26°C° 0.1 mm 3 mps 740 mmHg 49%
    16:00 +26°C° 0.1 mm 3 mps 740 mmHg 50%
    17:00 +25°C° 0 mm 3 mps 740 mmHg 55%
    18:00 +24°C° 0 mm 2 mps 740 mmHg 61%
    19:00 +23°C° 0 mm 1 mps 740 mmHg 66%
    20:00 +22°C° 0 mm 1 mps 740 mmHg 70%
    21:00 +20°C° 0 mm 1 mps 740 mmHg 73%
    22:00 +19°C° 0 mm 1 mps 741 mmHg 77%
    23:00 +18°C° 0.2 mm 1 mps 741 mmHg 79%
    Show more